#timestamp,LO_Frequency,Hit,StdDev 
1672653615.3,286046999.8,N
1672653635.2,286047000.2,N
1672653655.9,286046998.7,N
1672653675.7,286047000.7,N
1672653695.6,286047001.1,N
1672653715.4,286047002.2,N
1672653735.2,286047013.7,N
1672653755.1,286047006.5,N
1672653756.0,286047006.5,N
1672653775.8,286047001.0,N
1672653795.6,286047000.8,N
1672653815.5,286047000.2,N
1672653835.3,286046998.6,N
1672653855.1,286046998.9,N
1672653875.9,286046998.3,N
1672653895.7,286046998.7,N
1672653915.5,286046998.5,N
1672653935.4,286046996.6,N
1672653955.2,286046998.9,N
1672653975.0,286046998.9,N
1672653975.9,286046998.9,N
1672653995.8,286046999.2,N
1672654015.6,286046998.6,N
1672654035.4,286046998.8,N
1672654055.3,286046999.2,N
1672654075.1,286046998.2,N
1672654076.0,286046998.2,N
1672654095.8,286046998.7,N
1672654115.7,286046999.5,N
1672654135.5,286046999.4,N
1672654155.3,286046998.6,N
1672654175.2,286046998.8,N
1672654195.9,286046999.6,N
1672654215.7,286047000.5,N
1672654235.6,286046998.5,N
1672654255.4,286047000.0,N
1672654275.2,286046998.1,N
1672654295.1,286047001.2,N
1672654296.0,286047001.2,N
1672654315.8,286047001.0,N
1672654335.6,286047000.6,N
1672654355.5,286047002.0,N
1672654375.3,286047000.8,N
1672654395.1,286046998.1,N
1672654415.9,286046998.3,N
1672654435.7,286046998.9,N
1672654455.5,286046999.4,N
1672654475.4,286046998.5,N
1672654495.2,286047001.2,N
1672654515.0,286046998.1,N
1672654515.9,286046998.1,N
1672654535.8,286047001.1,N
1672654555.6,286047000.6,N
1672654575.4,286047000.1,N
1672654595.3,286047000.2,N
1672654615.1,286046998.5,N
1672654616.0,286046998.5,N
1672654635.8,286047002.3,N
1672654655.7,286047001.8,N
1672654675.5,286047001.8,N
1672654695.3,286047002.8,N
1672654715.2,286047002.1,N
1672654735.9,286047004.0,N
1672654755.7,286047003.5,N
1672654775.6,286047003.1,N
1672654795.4,286047004.5,N
1672654815.2,286047005.5,N
1672654835.1,286047004.1,N
1672654836.0,286047004.1,N
1672654855.8,286047004.2,N
1672654875.6,286047003.1,N
1672654895.5,286047003.6,N
1672654915.3,286047002.9,N
1672654935.1,286047005.7,N
1672654955.9,286047007.2,Y
1672654975.7,286047004.2,P
1672654995.5,286047002.8,N
1672655015.4,286047002.0,N
1672655035.2,286047001.8,N
1672655055.0,286047002.6,N
1672655055.9,286047002.6,Y
1672655075.8,286047000.7,P
1672655095.6,286047000.4,N
1672655115.4,286047001.2,N
1672655135.3,286047000.4,N
1672655155.1,286046999.9,N
1672655156.0,286046999.9,N
1672655175.8,286046999.7,N
1672655195.7,286047002.4,N
1672655215.5,286047002.2,N
1672655235.3,286047001.9,N
1672655255.2,286047002.5,N
1672655275.9,286047002.1,N
1672655295.7,286047002.3,N
1672655315.6,286047000.4,N
1672655335.4,286047000.1,N
1672655355.2,286047000.3,N
1672655375.1,286047000.8,N
1672655376.0,286047000.8,N
1672655395.8,286047000.4,N
1672655415.6,286047000.3,N
1672655435.5,286046999.8,N
1672655455.3,286046999.9,N
1672655475.1,286047002.3,N
1672655495.9,286047001.6,N
1672655515.7,286047002.5,N
1672655535.5,286047000.3,N
1672655555.4,286047001.8,N
1672655575.2,286047002.6,N
1672655595.0,286046999.9,N
1672655595.9,286046999.9,N
1672655615.8,286047000.7,N
1672655635.6,286047000.6,N
1672655655.4,286047000.7,N
1672655675.3,286047000.4,N
1672655695.1,286047000.7,N
1672655696.0,286047000.7,N
1672655715.8,286047000.3,N
1672655735.7,286047000.6,N
1672655755.5,286047000.5,N
1672655775.3,286047000.5,N
1672655795.2,286047000.6,N
1672655815.9,286047000.4,N
1672655835.7,286046998.2,N
1672655855.6,286047000.1,N
1672655875.4,286047002.5,N
1672655895.2,286047000.3,N
1672655915.1,286047000.9,N
1672655916.0,286047000.9,N
1672655935.8,286046999.8,N
1672655955.6,286047001.1,N
1672655975.5,286047000.9,N
1672655995.3,286046999.9,N
1672656015.1,286047011.9,Y
1672656035.9,286047000.4,P
1672656055.7,286047000.3,N
1672656075.5,286047002.3,P
1672656095.4,286047002.3,N
1672656115.2,286047002.6,N
1672656135.0,286047002.7,N
1672656135.9,286047002.7,N
1672656155.8,286047000.0,N
1672656175.6,286047000.3,N
1672656195.4,286047001.0,N
1672656215.3,286047001.2,N
1672656235.1,286046998.8,N
1672656255.8,286046999.0,N
1672656275.7,286046996.7,N
1672656295.5,286046999.6,N
1672656315.3,286046999.2,N
1672656335.2,286046999.2,N
1672656355.0,286046999.1,N
1672656355.9,286046999.1,N
1672656375.8,286047001.1,N
1672656395.6,286046998.2,N
1672656415.4,286046999.0,N
1672656435.3,286046996.9,N
1672656455.1,286047001.2,N
1672656456.0,286047001.2,N
1672656475.8,286046996.6,N
1672656495.7,286046997.1,N
1672656515.5,286046996.9,N
1672656535.3,286046996.7,N
1672656555.2,286046996.6,N
1672656575.9,286046996.6,N
1672656595.7,286046998.4,N
1672656615.6,286046998.7,N
1672656635.4,286046998.3,N
1672656655.2,286047001.1,N
1672656675.1,286046998.2,N
1672656676.0,286046998.2,N
1672656695.8,286047000.8,N
1672656715.6,286046998.9,N
1672656735.5,286046998.8,N
1672656755.3,286046996.7,N
1672656775.1,286046997.2,N
1672656795.9,286046997.0,N
1672656815.7,286046995.3,Y
1672656835.5,286046999.2,P
1672656855.4,286046999.5,N
1672656875.2,286046996.6,P
1672656895.0,286046997.4,N
1672656895.9,286046997.4,N
1672656915.8,286046997.6,N
1672656935.6,286046997.2,N
1672656955.4,286046996.6,Y
1672656975.3,286047000.3,P
1672656995.1,286047000.3,N
1672657015.8,286047001.2,N
1672657035.7,286046998.7,N
1672657055.5,286047000.5,N
1672657075.3,286047002.3,N
1672657095.2,286047002.0,N
1672657115.0,286047000.4,N
1672657115.9,286047000.4,N
1672657135.7,286047000.0,N
1672657155.6,286047002.8,N
1672657175.4,286047002.4,N
1672657195.2,286047000.6,N
